TimeCDT,TemperatureF,Dew PointF,Humidity,Sea Level PressureIn,VisibilityMPH,Wind Direction,Wind SpeedMPH,Gust SpeedMPH,PrecipitationIn,Events,Conditions,WindDirDegrees,DateUTC
12:35 AM,32.0,30.2,93,30.25,10.0,Calm,Calm,-,N/A,,Clear,0,2013-04-26 05:35:00
12:55 AM,32.0,28.4,87,30.25,10.0,Calm,Calm,-,N/A,,Clear,0,2013-04-26 05:55:00
1:15 AM,32.0,28.4,87,30.24,10.0,Calm,Calm,-,N/A,,Clear,0,2013-04-26 06:15:00
1:35 AM,32.0,28.4,87,30.23,10.0,Calm,Calm,-,N/A,,Clear,0,2013-04-26 06:35:00
1:55 AM,33.8,28.4,81,30.23,10.0,Calm,Calm,-,N/A,,Clear,0,2013-04-26 06:55:00
2:15 AM,33.8,28.4,81,30.23,10.0,Calm,Calm,-,N/A,,Clear,0,2013-04-26 07:15:00
2:35 AM,33.8,28.4,81,30.22,10.0,Calm,Calm,-,N/A,,Clear,0,2013-04-26 07:35:00
2:55 AM,33.8,30.2,87,30.22,10.0,Calm,Calm,-,N/A,,Clear,0,2013-04-26 07:55:00
3:15 AM,35.6,30.2,81,30.22,10.0,Calm,Calm,-,N/A,,Scattered Clouds,0,2013-04-26 08:15:00
3:35 AM,35.6,30.2,81,30.23,10.0,Calm,Calm,-,N/A,,Mostly Cloudy,0,2013-04-26 08:35:00
3:55 AM,35.6,30.2,81,30.24,10.0,Calm,Calm,-,N/A,,Overcast,0,2013-04-26 08:55:00
4:15 AM,35.6,30.2,81,30.24,10.0,Calm,Calm,-,N/A,,Overcast,0,2013-04-26 09:15:00
4:35 AM,37.4,32.0,81,30.23,10.0,Calm,Calm,-,N/A,,Overcast,0,2013-04-26 09:35:00
4:55 AM,37.4,32.0,81,30.23,10.0,ESE,3.5,-,N/A,Rain,Light Rain,120,2013-04-26 09:55:00
5:15 AM,39.2,32.0,75,30.23,10.0,SE,5.8,-,N/A,,Overcast,140,2013-04-26 10:15:00
5:35 AM,41.0,32.0,70,30.23,10.0,SE,5.8,-,N/A,,Overcast,140,2013-04-26 10:35:00
5:55 AM,41.0,32.0,70,30.22,10.0,SE,6.9,-,N/A,,Overcast,140,2013-04-26 10:55:00
6:15 AM,41.0,30.2,65,30.23,10.0,South,6.9,-,N/A,,Overcast,170,2013-04-26 11:15:00
6:35 AM,41.0,32.0,70,30.23,10.0,SSE,3.5,-,N/A,Rain,Rain,150,2013-04-26 11:35:00
6:55 AM,41.0,32.0,70,30.23,10.0,SSE,4.6,-,N/A,Rain,Rain,150,2013-04-26 11:55:00
7:15 AM,41.0,32.0,70,30.21,10.0,SE,12.7,-,N/A,Rain,Light Rain,130,2013-04-26 12:15:00
7:35 AM,41.0,32.0,70,30.24,10.0,SSE,5.8,-,N/A,,Overcast,150,2013-04-26 12:35:00
7:55 AM,42.8,32.0,66,30.23,10.0,SSE,6.9,-,N/A,,Overcast,160,2013-04-26 12:55:00
8:15 AM,42.8,32.0,66,30.23,10.0,SE,5.8,-,N/A,,Light Drizzle,140,2013-04-26 13:15:00
8:35 AM,44.6,32.0,61,30.23,10.0,SSE,3.5,-,N/A,,Scattered Clouds,150,2013-04-26 13:35:00
8:55 AM,46.4,33.8,62,30.21,10.0,SE,10.4,-,N/A,,Scattered Clouds,140,2013-04-26 13:55:00
9:15 AM,48.2,33.8,58,30.21,10.0,SSE,9.2,-,N/A,,Clear,160,2013-04-26 14:15:00
9:35 AM,50.0,32.0,50,30.20,10.0,SSE,11.5,-,N/A,,Clear,160,2013-04-26 14:35:00
9:55 AM,51.8,33.8,50,30.19,10.0,South,10.4,-,N/A,,Clear,180,2013-04-26 14:55:00
10:15 AM,51.8,32.0,47,30.18,10.0,SSE,11.5,-,N/A,,Clear,160,2013-04-26 15:15:00
10:35 AM,57.2,33.8,41,30.17,10.0,SSE,12.7,-,N/A,,Clear,150,2013-04-26 15:35:00
10:55 AM,57.2,33.8,41,30.16,10.0,SSE,15.0,-,N/A,,Scattered Clouds,160,2013-04-26 15:55:00
11:15 AM,59.0,33.8,39,30.15,10.0,SSE,11.5,-,N/A,,Scattered Clouds,150,2013-04-26 16:15:00
11:35 AM,60.8,32.0,34,30.14,10.0,South,12.7,20.7,N/A,,Scattered Clouds,180,2013-04-26 16:35:00
11:55 AM,62.6,33.8,34,30.14,10.0,South,15.0,-,N/A,,Scattered Clouds,180,2013-04-26 16:55:00
12:15 PM,64.4,32.0,30,30.14,10.0,South,16.1,24.2,N/A,,Clear,190,2013-04-26 17:15:00
12:35 PM,68.0,33.8,28,30.13,10.0,SSW,13.8,-,N/A,,Clear,200,2013-04-26 17:35:00
12:55 PM,68.0,32.0,26,30.11,10.0,South,13.8,27.6,N/A,,Clear,180,2013-04-26 17:55:00
1:15 PM,69.8,32.0,25,30.10,10.0,SSW,17.3,24.2,N/A,,Clear,210,2013-04-26 18:15:00
1:35 PM,71.6,32.0,23,30.10,10.0,SSW,18.4,24.2,N/A,,Clear,210,2013-04-26 18:35:00
1:55 PM,71.6,32.0,23,30.10,10.0,SSW,18.4,26.5,N/A,,Clear,210,2013-04-26 18:55:00
2:15 PM,71.6,32.0,23,30.10,10.0,SSW,18.4,24.2,N/A,,Scattered Clouds,200,2013-04-26 19:15:00
2:35 PM,71.6,32.0,23,30.09,10.0,SW,11.5,17.3,N/A,,Clear,220,2013-04-26 19:35:00
2:55 PM,71.6,32.0,23,30.08,10.0,South,13.8,-,N/A,,Scattered Clouds,190,2013-04-26 19:55:00
3:15 PM,71.6,32.0,23,30.08,10.0,SW,15.0,25.3,N/A,,Scattered Clouds,230,2013-04-26 20:15:00
3:35 PM,73.4,32.0,22,30.08,10.0,SW,15.0,28.8,N/A,,Scattered Clouds,230,2013-04-26 20:35:00
3:55 PM,71.6,32.0,23,30.08,10.0,SSW,18.4,25.3,N/A,,Scattered Clouds,210,2013-04-26 20:55:00
4:15 PM,71.6,33.8,25,30.07,10.0,SSW,18.4,26.5,N/A,,Scattered Clouds,200,2013-04-26 21:15:00
4:35 PM,71.6,33.8,25,30.07,10.0,SW,20.7,26.5,N/A,,Mostly Cloudy,220,2013-04-26 21:35:00
4:55 PM,69.8,33.8,27,30.07,10.0,SW,13.8,24.2,N/A,,Mostly Cloudy,230,2013-04-26 21:55:00
5:15 PM,69.8,33.8,27,30.07,10.0,SW,16.1,23.0,N/A,,Overcast,230,2013-04-26 22:15:00
5:35 PM,71.6,33.8,25,30.07,10.0,SW,18.4,25.3,N/A,,Overcast,230,2013-04-26 22:35:00
5:55 PM,69.8,35.6,28,30.08,10.0,SW,13.8,-,N/A,,Mostly Cloudy,230,2013-04-26 22:55:00
6:15 PM,69.8,35.6,28,30.08,10.0,SW,18.4,24.2,N/A,,Scattered Clouds,230,2013-04-26 23:15:00
6:35 PM,69.8,37.4,31,30.08,10.0,SW,12.7,-,N/A,,Scattered Clouds,230,2013-04-26 23:35:00
6:55 PM,69.8,39.2,33,30.08,10.0,SSW,15.0,20.7,N/A,,Scattered Clouds,210,2013-04-26 23:55:00
7:15 PM,68.0,39.2,35,30.09,10.0,SSW,10.4,-,N/A,,Scattered Clouds,210,2013-04-27 00:15:00
7:35 PM,66.2,41.0,40,30.10,10.0,SW,10.4,-,N/A,,Clear,220,2013-04-27 00:35:00
7:55 PM,64.4,42.8,45,30.10,10.0,SSW,10.4,-,N/A,,Clear,200,2013-04-27 00:55:00
8:15 PM,62.6,42.8,48,30.11,10.0,SSW,9.2,-,N/A,,Clear,200,2013-04-27 01:15:00
8:35 PM,62.6,42.8,48,30.12,10.0,South,9.2,-,N/A,,Clear,190,2013-04-27 01:35:00
8:55 PM,60.8,42.8,52,30.13,10.0,South,9.2,-,N/A,,Clear,190,2013-04-27 01:55:00
9:15 PM,60.8,42.8,52,30.13,10.0,South,9.2,-,N/A,,Scattered Clouds,190,2013-04-27 02:15:00
9:35 PM,60.8,42.8,52,30.13,10.0,SSW,10.4,-,N/A,,Clear,200,2013-04-27 02:35:00
9:55 PM,60.8,42.8,52,30.14,10.0,SSW,10.4,-,N/A,,Clear,200,2013-04-27 02:55:00
10:15 PM,60.8,42.8,52,30.15,10.0,SSW,9.2,-,N/A,,Clear,200,2013-04-27 03:15:00
10:35 PM,59.0,42.8,55,30.15,10.0,South,8.1,-,N/A,,Scattered Clouds,190,2013-04-27 03:35:00
10:55 PM,59.0,42.8,55,30.15,10.0,SSW,11.5,-,N/A,,Mostly Cloudy,210,2013-04-27 03:55:00
11:15 PM,59.0,41.0,51,30.16,10.0,SSW,8.1,-,N/A,,Scattered Clouds,200,2013-04-27 04:15:00
11:35 PM,59.0,42.8,55,30.17,10.0,SSW,9.2,-,N/A,,Clear,200,2013-04-27 04:35:00
11:55 PM,55.4,42.8,63,30.17,10.0,SSW,6.9,-,N/A,,Clear,210,2013-04-27 04:55:00